| time (UTC) | temp C | wind direction | speed KPH | gust KPH | rain 1hr cm | rain 24hr cm | rain mn cm | humidity % | barometer mb |
| 20260509001005 | 20 | 358 | 1.6 | 3.2 | 0.00 | 0.00 | 0.00 | 53 | 1021.0 |
| 20260509000504 | 20 | 274 | 3.2 | 4.8 | 0.00 | 0.00 | 0.00 | 52 | 1021.0 |
| 20260509000005 | 20 | 280 | 3.2 | 8.0 | 0.00 | 0.00 | 0.00 | 52 | 1021.1 |
| 20260508235505 | 20 | 321 | 3.2 | 4.8 | 0.00 | 0.00 | 0.00 | 53 | 1021.1 |
| 20260508234505 | 19 | 251 | 3.2 | 4.8 | 0.00 | 0.00 | 0.00 | 51 | 1021.1 |
| 20260508234005 | 19 | 270 | 1.6 | 3.2 | 0.00 | 0.00 | 0.00 | 52 | 1021.2 |
| 20260508233505 | 19 | 316 | 1.6 | 1.6 | 0.00 | 0.00 | 0.00 | 53 | 1021.2 |
| 20260508233005 | 19 | 85 | 1.6 | 3.2 | 0.00 | 0.00 | 0.00 | 51 | 1021.2 |
| 20260508232505 | 19 | 11 | 1.6 | 3.2 | 0.00 | 0.00 | 0.00 | 53 | 1021.2 |
| 20260508231505 | 19 | 0 | 3.2 | 8.0 | 0.00 | 0.00 | 0.00 | 53 | 1021.2 |
| 20260508231005 | 19 | 17 | 3.2 | 8.0 | 0.00 | 0.00 | 0.00 | 51 | 1021.2 |
| 20260508230505 | 20 | 70 | 3.2 | 11.3 | 0.00 | 0.00 | 0.00 | 52 | 1021.2 |
| 20260508230006 | 20 | 346 | 3.2 | 4.8 | 0.00 | 0.00 | 0.00 | 51 | 1021.1 |
| 20260508225504 | 20 | 6 | 1.6 | 4.8 | 0.00 | 0.00 | 0.00 | 53 | 1021.1 |
| 20260508225005 | 20 | 2 | 4.8 | 9.7 | 0.00 | 0.00 | 0.00 | 53 | 1021.1 |
| 20260508224505 | 19 | 331 | 3.2 | 8.0 | 0.00 | 0.00 | 0.00 | 52 | 1021.1 |
| 20260508224005 | 19 | 37 | 4.8 | 8.0 | 0.00 | 0.00 | 0.00 | 53 | 1021.1 |
| 20260508223005 | 19 | 28 | 4.8 | 8.0 | 0.00 | 0.00 | 0.00 | 52 | 1021.2 |
| 20260508222505 | 19 | 82 | 4.8 | 12.9 | 0.00 | 0.00 | 0.00 | 53 | 1021.2 |
| 20260508222005 | 19 | 57 | 4.8 | 8.0 | 0.00 | 0.00 | 0.00 | 52 | 1021.2 |
| 20260508221005 | 19 | 65 | 4.8 | 12.9 | 0.00 | 0.00 | 0.00 | 53 | 1021.3 |
| 20260508220505 | 19 | 1 | 3.2 | 12.9 | 0.00 | 0.00 | 0.00 | 54 | 1021.3 |
| 20260508220005 | 18 | 50 | 1.6 | 11.3 | 0.00 | 0.00 | 0.00 | 56 | 1021.3 |
| 20260508214504 | 18 | 71 | 8.0 | 14.5 | 0.00 | 0.00 | 0.00 | 53 | 1021.3 |
| 20260508214005 | 18 | 71 | 6.4 | 12.9 | 0.00 | 0.00 | 0.00 | 56 | 1021.3 |
| 20260508213505 | 18 | 104 | 6.4 | 12.9 | 0.00 | 0.00 | 0.00 | 54 | 1021.3 |
| 20260508213005 | 18 | 88 | 4.8 | 14.5 | 0.00 | 0.00 | 0.00 | 57 | 1021.4 |
| 20260508212505 | 18 | 2 | 3.2 | 9.7 | 0.00 | 0.00 | 0.00 | 54 | 1021.4 |
| 20260508212004 | 18 | 50 | 4.8 | 16.1 | 0.00 | 0.00 | 0.00 | 56 | 1021.4 |
| 20260508211505 | 18 | 278 | 1.6 | 3.2 | 0.00 | 0.00 | 0.00 | 54 | 1021.3 |
| 20260508211005 | 18 | 47 | 6.4 | 12.9 | 0.00 | 0.00 | 0.00 | 56 | 1021.3 |
| 20260508210504 | 17 | 150 | 4.8 | 9.7 | 0.00 | 0.00 | 0.00 | 55 | 1021.3 |
| 20260508210005 | 17 | 93 | 4.8 | 11.3 | 0.00 | 0.00 | 0.00 | 55 | 1021.4 |
| 20260508205505 | 17 | 338 | 3.2 | 8.0 | 0.00 | 0.00 | 0.00 | 57 | 1021.4 |
| 20260508205005 | 17 | 15 | 3.2 | 4.8 | 0.00 | 0.00 | 0.00 | 56 | 1021.4 |
| 20260508204505 | 17 | 113 | 4.8 | 9.7 | 0.00 | 0.00 | 0.00 | 56 | 1021.3 |
| 20260508204005 | 17 | 86 | 3.2 | 9.7 | 0.00 | 0.00 | 0.00 | 56 | 1021.4 |
| 20260508203006 | 17 | 113 | 4.8 | 12.9 | 0.00 | 0.00 | 0.00 | 59 | 1021.3 |
| 20260508202504 | 17 | 122 | 4.8 | 12.9 | 0.00 | 0.00 | 0.00 | 59 | 1021.4 |
| 20260508202004 | 17 | 311 | 3.2 | 8.0 | 0.00 | 0.00 | 0.00 | 56 | 1021.4 |
| 20260508201506 | 17 | 206 | 3.2 | 12.9 | 0.00 | 0.00 | 0.00 | 58 | 1021.4 |
| 20260508201005 | 16 | 195 | 3.2 | 11.3 | 0.00 | 0.00 | 0.00 | 58 | 1021.4 |
| 20260508200505 | 16 | 121 | 8.0 | 12.9 | 0.00 | 0.00 | 0.00 | 59 | 1021.4 |
| 20260508200005 | 16 | 93 | 3.2 | 8.0 | 0.00 | 0.00 | 0.00 | 61 | 1021.5 |
| 20260508195505 | 16 | 228 | 1.6 | 3.2 | 0.00 | 0.00 | 0.00 | 62 | 1021.5 |
| 20260508195005 | 15 | 22 | 1.6 | 3.2 | 0.00 | 0.00 | 0.00 | 63 | 1021.6 |
| 20260508194505 | 15 | 319 | 3.2 | 4.8 | 0.00 | 0.00 | 0.00 | 63 | 1021.6 |
| 20260508193504 | 15 | 6 | 4.8 | 11.3 | 0.00 | 0.00 | 0.00 | 64 | 1021.6 |
| 20260508193006 | 16 | 19 | 3.2 | 11.3 | 0.00 | 0.00 | 0.00 | 62 | 1021.5 |
| 20260508192505 | 16 | 19 | 4.8 | 9.7 | 0.00 | 0.00 | 0.00 | 63 | 1021.6 |
| 20260508191505 | 15 | 24 | 3.2 | 9.7 | 0.00 | 0.00 | 0.00 | 65 | 1021.6 |
| 20260508191004 | 15 | 328 | 4.8 | 8.0 | 0.00 | 0.00 | 0.00 | 64 | 1021.5 |
| 20260508190505 | 15 | 326 | 4.8 | 8.0 | 0.00 | 0.00 | 0.00 | 64 | 1021.5 |
| 20260508190005 | 15 | 317 | 6.4 | 11.3 | 0.00 | 0.00 | 0.00 | 64 | 1021.6 |
| 20260508185504 | 15 | 330 | 3.2 | 9.7 | 0.00 | 0.00 | 0.00 | 66 | 1021.6 |
| 20260508185005 | 15 | 19 | 4.8 | 12.9 | 0.00 | 0.00 | 0.00 | 65 | 1021.6 |
| 20260508184505 | 15 | 340 | 3.2 | 8.0 | 0.00 | 0.00 | 0.00 | 65 | 1021.7 |
| 20260508184005 | 14 | 355 | 4.8 | 9.7 | 0.00 | 0.00 | 0.00 | 65 | 1021.7 |
| 20260508183505 | 14 | 327 | 6.4 | 9.7 | 0.00 | 0.00 | 0.00 | 66 | 1021.8 |
| 20260508183005 | 14 | 328 | 4.8 | 8.0 | 0.00 | 0.00 | 0.00 | 65 | 1021.7 |
| 20260508182504 | 15 | 5 | 1.6 | 3.2 | 0.00 | 0.00 | 0.00 | 64 | 1021.7 |
| 20260508182005 | 15 | 44 | 1.6 | 9.7 | 0.00 | 0.00 | 0.00 | 62 | 1021.7 |
| 20260508181005 | 15 | 139 | 4.8 | 16.1 | 0.00 | 0.00 | 0.00 | 61 | 1021.6 |
| 20260508180505 | 15 | 171 | 9.7 | 16.1 | 0.00 | 0.00 | 0.00 | 61 | 1021.5 |
| 20260508180005 | 15 | 173 | 1.6 | 4.8 | 0.00 | 0.00 | 0.00 | 64 | 1021.3 |
| 20260508175505 | 15 | 136 | 3.2 | 12.9 | 0.00 | 0.00 | 0.00 | 61 | 1021.3 |
| 20260508174505 | 15 | 47 | 3.2 | 11.3 | 0.00 | 0.00 | 0.00 | 63 | 1021.3 |
| 20260508173504 | 15 | 129 | 8.0 | 16.1 | 0.00 | 0.00 | 0.00 | 62 | 1021.3 |
| 20260508173004 | 15 | 174 | 6.4 | 12.9 | 0.00 | 0.00 | 0.00 | 61 | 1021.2 |
| 20260508172504 | 15 | 111 | 4.8 | 12.9 | 0.00 | 0.00 | 0.00 | 62 | 1021.2 |
| 20260508171005 | 15 | 205 | 6.4 | 11.3 | 0.00 | 0.00 | 0.00 | 65 | 1021.1 |
| 20260508170504 | 14 | 148 | 4.8 | 11.3 | 0.00 | 0.00 | 0.00 | 67 | 1021.1 |
| 20260508170005 | 14 | 42 | 8.0 | 12.9 | 0.00 | 0.00 | 0.00 | 67 | 1021.2 |
| 20260508165505 | 13 | 174 | 9.7 | 16.1 | 0.00 | 0.00 | 0.00 | 68 | 1021.2 |
| 20260508165005 | 13 | 208 | 6.4 | 12.9 | 0.00 | 0.00 | 0.00 | 68 | 1021.2 |
| 20260508164505 | 13 | 163 | 6.4 | 11.3 | 0.00 | 0.00 | 0.00 | 67 | 1021.1 |
| 20260508164004 | 13 | 176 | 3.2 | 11.3 | 0.00 | 0.00 | 0.00 | 67 | 1021.1 |
| 20260508163504 | 13 | 171 | 6.4 | 11.3 | 0.00 | 0.00 | 0.00 | 71 | 1021.1 |
| 20260508162505 | 12 | 54 | 1.6 | 4.8 | 0.00 | 0.00 | 0.00 | 70 | 1021.0 |
| 20260508162005 | 12 | 207 | 3.2 | 4.8 | 0.00 | 0.00 | 0.00 | 69 | 1020.9 |
| 20260508161505 | 12 | 207 | 4.8 | 9.7 | 0.00 | 0.00 | 0.00 | 72 | 1020.9 |
| 20260508161005 | 12 | 151 | 4.8 | 8.0 | 0.00 | 0.00 | 0.00 | 72 | 1020.8 |
| 20260508160505 | 12 | 203 | 4.8 | 8.0 | 0.00 | 0.00 | 0.00 | 72 | 1020.9 |
| 20260508160004 | 12 | 214 | 1.6 | 8.0 | 0.00 | 0.00 | 0.00 | 72 | 1020.9 |
| 20260508155505 | 12 | 132 | 3.2 | 8.0 | 0.00 | 0.00 | 0.00 | 72 | 1020.7 |
| 20260508155005 | 12 | 177 | 1.6 | 4.8 | 0.00 | 0.00 | 0.00 | 72 | 1021.0 |
| 20260508154504 | 12 | 91 | 3.2 | 4.8 | 0.00 | 0.00 | 0.00 | 73 | 1020.9 |
| 20260508154005 | 12 | 191 | 3.2 | 4.8 | 0.00 | 0.00 | 0.00 | 75 | 1020.7 |
| 20260508153504 | 11 | 105 | 1.6 | 4.8 | 0.00 | 0.00 | 0.00 | 75 | 1020.6 |
| 20260508153005 | 11 | 5 | 1.6 | 8.0 | 0.00 | 0.00 | 0.00 | 77 | 1020.6 |
| 20260508152505 | 11 | 0 | 1.6 | 3.2 | 0.00 | 0.00 | 0.00 | 78 | 1020.6 |
| 20260508152005 | 11 | 113 | 3.2 | 4.8 | 0.00 | 0.00 | 0.00 | 77 | 1020.6 |
| 20260508151005 | 11 | 55 | 1.6 | 4.8 | 0.00 | 0.00 | 0.00 | 81 | 1020.4 |
| 20260508150504 | 11 | 113 | 4.8 | 4.8 | 0.00 | 0.00 | 0.00 | 80 | 1020.4 |
| 20260508145505 | 10 | 4 | 1.6 | 3.2 | 0.00 | 0.00 | 0.00 | 83 | 1020.5 |
| 20260508145004 | 10 | 32 | 1.6 | 3.2 | 0.00 | 0.00 | 0.00 | 83 | 1020.4 |
| 20260508144505 | 10 | 89 | 1.6 | 3.2 | 0.00 | 0.00 | 0.00 | 85 | 1020.4 |
| 20260508144005 | 10 | 89 | 0.0 | 3.2 | 0.00 | 0.00 | 0.00 | 84 | 1020.4 |
| 20260508143505 | 10 | 89 | 0.0 | 3.2 | 0.00 | 0.00 | 0.00 | 84 | 1020.5 |
| 20260508143005 | 10 | 89 | 1.6 | 3.2 | 0.00 | 0.00 | 0.00 | 84 | 1020.3 |
| 20260508142504 | 10 | 89 | 0.0 | 1.6 | 0.00 | 0.00 | 0.00 | 84 | 1020.5 |
| 20260508141505 | 9 | 89 | 1.6 | 3.2 | 0.00 | 0.00 | 0.00 | 86 | 1020.4 |
| 20260508141005 | 9 | 89 | 0.0 | 1.6 | 0.00 | 0.00 | 0.00 | 87 | 1020.5 |
| 20260508140504 | 9 | 92 | 0.0 | 3.2 | 0.00 | 0.00 | 0.00 | 88 | 1020.4 |
| 20260508135505 | 8 | 203 | 1.6 | 3.2 | 0.00 | 0.00 | 0.00 | 89 | 1020.3 |
| 20260508135005 | 8 | 235 | 0.0 | 3.2 | 0.00 | 0.00 | 0.00 | 89 | 1020.2 |
| 20260508134505 | 8 | 237 | 0.0 | 3.2 | 0.00 | 0.00 | 0.00 | 90 | 1020.0 |
| 20260508134005 | 8 | 236 | 0.0 | 0.0 | 0.00 | 0.00 | 0.00 | 89 | 1019.8 |
| 20260508133504 | 8 | 236 | 0.0 | 3.2 | 0.00 | 0.00 | 0.00 | 89 | 1019.8 |
| 20260508132504 | 8 | 0 | 0.0 | 1.6 | 0.00 | 0.00 | 0.00 | 89 | 1019.6 |
| 20260508132005 | 8 | 0 | 0.0 | 0.0 | 0.00 | 0.00 | 0.00 | 89 | 1019.5 |
| 20260508131505 | 8 | 0 | 0.0 | 3.2 | 0.00 | 0.00 | 0.00 | 89 | 1019.4 |
| 20260508131004 | 8 | 0 | 1.6 | 1.6 | 0.00 | 0.00 | 0.00 | 89 | 1019.4 |
| 20260508130505 | 8 | 0 | 1.6 | 3.2 | 0.00 | 0.00 | 0.00 | 89 | 1019.3 |
| 20260508130005 | 8 | 0 | 1.6 | 3.2 | 0.00 | 0.00 | 0.00 | 89 | 1019.1 |
| 20260508125504 | 8 | 0 | 1.6 | 1.6 | 0.00 | 0.00 | 0.00 | 89 | 1019.1 |
| 20260508125005 | 8 | 0 | 1.6 | 1.6 | 0.00 | 0.00 | 0.00 | 89 | 1019.1 |
| 20260508124505 | 8 | 0 | 0.0 | 3.2 | 0.00 | 0.00 | 0.00 | 89 | 1018.9 |
| 20260508123505 | 9 | 180 | 0.0 | 3.2 | 0.00 | 0.00 | 0.00 | 89 | 1018.8 |
| 20260508122505 | 9 | 0 | 1.6 | 3.2 | 0.00 | 0.00 | 0.00 | 89 | 1018.7 |
| 20260508122005 | 9 | 0 | 1.6 | 3.2 | 0.00 | 0.00 | 0.00 | 88 | 1018.6 |
| 20260508121504 | 9 | 357 | 1.6 | 3.2 | 0.00 | 0.00 | 0.00 | 89 | 1018.6 |
| 20260508121004 | 9 | 249 | 0.0 | 3.2 | 0.00 | 0.00 | 0.00 | 89 | 1018.6 |
| 20260508120505 | 9 | 248 | 0.0 | 3.2 | 0.00 | 0.00 | 0.00 | 89 | 1018.5 |
| 20260508120005 | 10 | 249 | 1.6 | 3.2 | 0.00 | 0.00 | 0.00 | 89 | 1018.4 |
| 20260508115504 | 10 | 249 | 0.0 | 1.6 | 0.00 | 0.00 | 0.00 | 89 | 1018.5 |
| 20260508115004 | 9 | 249 | 0.0 | 3.2 | 0.00 | 0.00 | 0.00 | 88 | 1018.5 |
| 20260508114505 | 9 | 317 | 1.6 | 3.2 | 0.00 | 0.00 | 0.00 | 88 | 1018.4 |
| 20260508114005 | 9 | 276 | 0.0 | 3.2 | 0.00 | 0.00 | 0.00 | 88 | 1018.4 |
| 20260508113504 | 9 | 354 | 0.0 | 3.2 | 0.00 | 0.00 | 0.00 | 87 | 1018.4 |
| 20260508113006 | 9 | 0 | 0.0 | 3.2 | 0.00 | 0.00 | 0.00 | 87 | 1018.3 |
| 20260508112504 | 9 | 248 | 0.0 | 3.2 | 0.00 | 0.00 | 0.00 | 87 | 1018.3 |
| 20260508112004 | 9 | 249 | 0.0 | 1.6 | 0.00 | 0.00 | 0.00 | 87 | 1018.3 |
| 20260508111005 | 9 | 249 | 0.0 | 3.2 | 0.00 | 0.00 | 0.00 | 87 | 1018.0 |
| 20260508110505 | 10 | 249 | 0.0 | 3.2 | 0.00 | 0.00 | 0.00 | 87 | 1017.9 |
| 20260508110005 | 10 | 249 | 0.0 | 1.6 | 0.00 | 0.00 | 0.00 | 87 | 1017.9 |
| 20260508105504 | 10 | 250 | 0.0 | 1.6 | 0.00 | 0.00 | 0.00 | 87 | 1017.9 |
| 20260508105005 | 10 | 248 | 0.0 | 0.0 | 0.00 | 0.00 | 0.00 | 87 | 1017.8 |
| 20260508104505 | 10 | 248 | 0.0 | 0.0 | 0.00 | 0.00 | 0.00 | 87 | 1017.8 |
| 20260508104004 | 10 | 248 | 0.0 | 0.0 | 0.00 | 0.00 | 0.00 | 87 | 1017.8 |
| 20260508103504 | 10 | 248 | 0.0 | 3.2 | 0.00 | 0.00 | 0.00 | 87 | 1017.7 |
| 20260508103004 | 10 | 248 | 0.0 | 3.2 | 0.00 | 0.00 | 0.00 | 87 | 1017.7 |
| 20260508102504 | 10 | 354 | 0.0 | 3.2 | 0.00 | 0.00 | 0.00 | 86 | 1017.6 |
| 20260508102005 | 10 | 342 | 0.0 | 3.2 | 0.00 | 0.00 | 0.00 | 86 | 1017.6 |
| 20260508101505 | 10 | 0 | 0.0 | 3.2 | 0.00 | 0.00 | 0.00 | 86 | 1017.5 |
| 20260508101005 | 10 | 248 | 0.0 | 1.6 | 0.00 | 0.00 | 0.00 | 86 | 1017.4 |
| 20260508100005 | 10 | 318 | 0.0 | 3.2 | 0.00 | 0.00 | 0.00 | 86 | 1017.5 |
| 20260508095005 | 10 | 350 | 0.0 | 3.2 | 0.00 | 0.00 | 0.00 | 86 | 1017.3 |
| 20260508094005 | 10 | 249 | 1.6 | 3.2 | 0.00 | 0.00 | 0.00 | 86 | 1017.3 |
| 20260508093504 | 10 | 248 | 1.6 | 3.2 | 0.00 | 0.00 | 0.00 | 86 | 1017.2 |
| 20260508093005 | 10 | 346 | 1.6 | 1.6 | 0.00 | 0.00 | 0.00 | 86 | 1017.1 |
| 20260508092504 | 10 | 266 | 1.6 | 1.6 | 0.00 | 0.00 | 0.00 | 85 | 1017.1 |
| 20260508092004 | 10 | 249 | 1.6 | 1.6 | 0.00 | 0.00 | 0.00 | 85 | 1017.0 |
| 20260508091504 | 10 | 248 | 1.6 | 3.2 | 0.00 | 0.00 | 0.00 | 85 | 1017.0 |
| 20260508091005 | 10 | 290 | 0.0 | 3.2 | 0.00 | 0.00 | 0.00 | 85 | 1016.9 |
| 20260508090005 | 10 | 248 | 0.0 | 1.6 | 0.00 | 0.00 | 0.00 | 85 | 1016.9 |
| 20260508085504 | 10 | 355 | 0.0 | 1.6 | 0.00 | 0.00 | 0.00 | 84 | 1016.9 |
| 20260508085004 | 10 | 0 | 0.0 | 3.2 | 0.00 | 0.00 | 0.00 | 84 | 1017.0 |
| 20260508084504 | 10 | 250 | 0.0 | 1.6 | 0.00 | 0.00 | 0.00 | 84 | 1016.9 |
| 20260508084005 | 10 | 248 | 0.0 | 0.0 | 0.00 | 0.00 | 0.00 | 84 | 1016.9 |
| 20260508083504 | 10 | 248 | 0.0 | 0.0 | 0.00 | 0.00 | 0.00 | 84 | 1016.9 |
| 20260508083005 | 10 | 248 | 0.0 | 0.0 | 0.00 | 0.00 | 0.00 | 83 | 1016.9 |
| 20260508082504 | 10 | 248 | 0.0 | 3.2 | 0.00 | 0.00 | 0.00 | 83 | 1016.9 |
| 20260508082004 | 10 | 248 | 1.6 | 3.2 | 0.00 | 0.00 | 0.00 | 83 | 1016.8 |
| 20260508081505 | 11 | 347 | 0.0 | 1.6 | 0.00 | 0.00 | 0.00 | 82 | 1016.8 |
| 20260508081004 | 11 | 322 | 1.6 | 1.6 | 0.00 | 0.00 | 0.00 | 82 | 1016.7 |
| 20260508080504 | 11 | 252 | 0.0 | 3.2 | 0.00 | 0.00 | 0.00 | 82 | 1016.7 |
| 20260508080004 | 11 | 0 | 0.0 | 0.0 | 0.00 | 0.00 | 0.00 | 82 | 1016.7 |
| 20260508075504 | 11 | 0 | 0.0 | 1.6 | 0.00 | 0.00 | 0.00 | 81 | 1016.7 |
| 20260508075004 | 11 | 0 | 0.0 | 3.2 | 0.00 | 0.00 | 0.00 | 81 | 1016.7 |
| 20260508074504 | 11 | 249 | 1.6 | 3.2 | 0.00 | 0.00 | 0.00 | 81 | 1016.7 |
| 20260508074005 | 11 | 264 | 1.6 | 1.6 | 0.00 | 0.00 | 0.00 | 80 | 1016.7 |
| 20260508073504 | 11 | 249 | 1.6 | 1.6 | 0.00 | 0.00 | 0.00 | 80 | 1016.7 |
| 20260508073005 | 11 | 280 | 1.6 | 1.6 | 0.00 | 0.00 | 0.00 | 79 | 1016.7 |
| 20260508070504 | 12 | 0 | 0.0 | 3.2 | 0.00 | 0.00 | 0.00 | 78 | 1016.7 |
| 20260508070005 | 12 | 259 | 1.6 | 1.6 | 0.00 | 0.00 | 0.00 | 77 | 1016.7 |
| 20260508065505 | 12 | 256 | 1.6 | 3.2 | 0.00 | 0.00 | 0.00 | 77 | 1016.7 |
| 20260508065005 | 12 | 254 | 1.6 | 1.6 | 0.00 | 0.00 | 0.00 | 76 | 1016.7 |
| 20260508064505 | 12 | 242 | 0.0 | 3.2 | 0.00 | 0.00 | 0.00 | 76 | 1016.6 |
| 20260508064004 | 13 | 0 | 0.0 | 3.2 | 0.00 | 0.00 | 0.00 | 76 | 1016.5 |
| 20260508063005 | 13 | 275 | 1.6 | 4.8 | 0.00 | 0.00 | 0.00 | 74 | 1016.7 |
| 20260508062504 | 13 | 81 | 1.6 | 4.8 | 0.00 | 0.00 | 0.00 | 74 | 1016.5 |
| 20260508062005 | 13 | 118 | 1.6 | 4.8 | 0.00 | 0.00 | 0.00 | 74 | 1016.6 |
| 20260508061505 | 13 | 139 | 1.6 | 3.2 | 0.00 | 0.00 | 0.00 | 71 | 1016.6 |
| 20260508061005 | 14 | 186 | 1.6 | 3.2 | 0.00 | 0.00 | 0.00 | 71 | 1016.6 |
| 20260508060505 | 14 | 189 | 1.6 | 3.2 | 0.00 | 0.00 | 0.00 | 70 | 1016.6 |
| 20260508060005 | 14 | 229 | 0.0 | 3.2 | 0.00 | 0.00 | 0.00 | 71 | 1016.6 |
| 20260508055504 | 14 | 229 | 1.6 | 3.2 | 0.00 | 0.00 | 0.00 | 70 | 1016.6 |
| 20260508055004 | 15 | 159 | 3.2 | 3.2 | 0.00 | 0.00 | 0.00 | 69 | 1016.5 |
| 20260508054505 | 15 | 128 | 1.6 | 3.2 | 0.00 | 0.00 | 0.00 | 69 | 1016.6 |
| 20260508054005 | 15 | 321 | 1.6 | 3.2 | 0.00 | 0.00 | 0.00 | 69 | 1016.6 |
| 20260508053504 | 15 | 309 | 0.0 | 3.2 | 0.00 | 0.00 | 0.00 | 68 | 1016.7 |
| 20260508053005 | 15 | 309 | 1.6 | 3.2 | 0.00 | 0.00 | 0.00 | 67 | 1016.7 |
| 20260508052505 | 15 | 309 | 1.6 | 3.2 | 0.00 | 0.00 | 0.00 | 67 | 1016.6 |
| 20260508051504 | 15 | 335 | 3.2 | 3.2 | 0.00 | 0.00 | 0.00 | 66 | 1016.7 |
| 20260508051004 | 16 | 328 | 1.6 | 9.7 | 0.00 | 0.00 | 0.00 | 65 | 1016.7 |
| 20260508050504 | 16 | 334 | 3.2 | 9.7 | 0.00 | 0.00 | 0.00 | 65 | 1016.6 |
| 20260508050005 | 16 | 336 | 4.8 | 8.0 | 0.00 | 0.00 | 0.00 | 65 | 1016.6 |
| 20260508045504 | 16 | 326 | 3.2 | 8.0 | 0.00 | 0.00 | 0.00 | 65 | 1016.6 |
| 20260508045004 | 16 | 324 | 3.2 | 8.0 | 0.00 | 0.00 | 0.00 | 65 | 1016.6 |
| 20260508044505 | 16 | 327 | 3.2 | 4.8 | 0.00 | 0.00 | 0.00 | 65 | 1016.6 |
| 20260508043504 | 16 | 339 | 3.2 | 8.0 | 0.00 | 0.00 | 0.00 | 64 | 1016.5 |
| 20260508043004 | 16 | 332 | 3.2 | 9.7 | 0.00 | 0.00 | 0.00 | 64 | 1016.7 |
| 20260508042504 | 16 | 330 | 4.8 | 8.0 | 0.00 | 0.00 | 0.00 | 64 | 1016.6 |
| 20260508042004 | 16 | 342 | 4.8 | 8.0 | 0.00 | 0.00 | 0.00 | 64 | 1016.5 |
| 20260508041504 | 16 | 333 | 8.0 | 11.3 | 0.00 | 0.00 | 0.00 | 63 | 1016.5 |
| 20260508041004 | 16 | 349 | 4.8 | 11.3 | 0.00 | 0.00 | 0.00 | 64 | 1016.4 |
| 20260508040504 | 16 | 351 | 4.8 | 8.0 | 0.00 | 0.00 | 0.00 | 64 | 1016.3 |
| 20260508034505 | 16 | 323 | 1.6 | 3.2 | 0.00 | 0.00 | 0.00 | 66 | 1016.1 |
| 20260508034004 | 16 | 296 | 0.0 | 3.2 | 0.00 | 0.00 | 0.00 | 65 | 1016.1 |
| 20260508033504 | 17 | 296 | 1.6 | 3.2 | 0.00 | 0.00 | 0.00 | 64 | 1016.0 |
| 20260508033005 | 17 | 321 | 1.6 | 3.2 | 0.00 | 0.00 | 0.00 | 64 | 1015.9 |
| 20260508032504 | 17 | 340 | 1.6 | 3.2 | 0.00 | 0.00 | 0.00 | 63 | 1015.9 |
| 20260508032004 | 17 | 315 | 1.6 | 3.2 | 0.00 | 0.00 | 0.00 | 64 | 1015.8 |
| 20260508031005 | 18 | 294 | 1.6 | 3.2 | 0.00 | 0.00 | 0.00 | 64 | 1015.7 |
| 20260508030504 | 18 | 294 | 1.6 | 3.2 | 0.00 | 0.00 | 0.00 | 63 | 1015.7 |
| 20260508030004 | 18 | 293 | 1.6 | 3.2 | 0.00 | 0.00 | 0.00 | 62 | 1015.6 |
| 20260508025505 | 18 | 333 | 0.0 | 3.2 | 0.00 | 0.00 | 0.00 | 63 | 1015.6 |
| 20260508024505 | 19 | 333 | 0.0 | 3.2 | 0.00 | 0.00 | 0.00 | 64 | 1015.5 |
| 20260508024004 | 20 | 256 | 1.6 | 1.6 | 0.00 | 0.00 | 0.00 | 61 | 1015.5 |
| 20260508023504 | 20 | 246 | 0.0 | 1.6 | 0.00 | 0.00 | 0.00 | 64 | 1015.5 |
| 20260508022504 | 21 | 246 | 1.6 | 3.2 | 0.00 | 0.00 | 0.00 | 55 | 1015.6 |
| 20260508022005 | 21 | 220 | 0.0 | 3.2 | 0.00 | 0.00 | 0.00 | 57 | 1015.6 |
| 20260508021504 | 21 | 220 | 0.0 | 3.2 | 0.00 | 0.00 | 0.00 | 55 | 1015.6 |
| 20260508021004 | 21 | 232 | 3.2 | 4.8 | 0.00 | 0.00 | 0.00 | 53 | 1015.6 |
| 20260508020504 | 21 | 244 | 1.6 | 3.2 | 0.00 | 0.00 | 0.00 | 51 | 1015.6 |
| 20260508020004 | 21 | 64 | 0.0 | 3.2 | 0.00 | 0.00 | 0.00 | 52 | 1015.6 |
| 20260508015504 | 22 | 67 | 1.6 | 1.6 | 0.00 | 0.00 | 0.00 | 52 | 1015.7 |
| 20260508015005 | 22 | 53 | 1.6 | 3.2 | 0.00 | 0.00 | 0.00 | 51 | 1015.7 |
| 20260508014504 | 22 | 275 | 1.6 | 3.2 | 0.00 | 0.00 | 0.00 | 49 | 1015.6 |
| 20260508013504 | 22 | 83 | 3.2 | 4.8 | 0.00 | 0.00 | 0.00 | 47 | 1015.8 |
| 20260508013005 | 23 | 122 | 3.2 | 4.8 | 0.00 | 0.00 | 0.00 | 48 | 1015.8 |
| 20260508012504 | 23 | 181 | 1.6 | 3.2 | 0.00 | 0.00 | 0.00 | 49 | 1015.9 |
| 20260508011504 | 22 | 223 | 3.2 | 3.2 | 0.00 | 0.00 | 0.00 | 48 | 1016.1 |
| 20260508011004 | 22 | 207 | 1.6 | 3.2 | 0.00 | 0.00 | 0.00 | 48 | 1016.1 |
| 20260508010503 | 22 | 254 | 1.6 | 1.6 | 0.00 | 0.00 | 0.00 | 49 | 1016.2 |
| 20260508010004 | 21 | 310 | 1.6 | 8.0 | 0.00 | 0.00 | 0.00 | 52 | 1016.2 |
| 20260508005504 | 21 | 84 | 3.2 | 4.8 | 0.00 | 0.00 | 0.00 | 52 | 1016.2 |
| 20260508005005 | 21 | 9 | 3.2 | 4.8 | 0.00 | 0.00 | 0.00 | 54 | 1016.2 |
| 20260508004505 | 21 | 359 | 1.6 | 3.2 | 0.00 | 0.00 | 0.00 | 52 | 1016.2 |
| 20260508004004 | 21 | 44 | 1.6 | 3.2 | 0.00 | 0.00 | 0.00 | 53 | 1016.2 |
| 20260508003504 | 21 | 50 | 3.2 | 4.8 | 0.00 | 0.00 | 0.00 | 53 | 1016.3 |
| 20260508003005 | 21 | 11 | 1.6 | 3.2 | 0.00 | 0.00 | 0.00 | 54 | 1016.3 |